Location: Newark
(51.2000°N, 58.6167°E)
Time: 09:55:13
(UTC+00:00)

ISS - Pass Details

Date: 25 September 2020
Orbit: 418 x 420 km, 51.6° (Epoch: 21 October)

Event Time Altitude Azimuth Distance (km) Brightness Sun altitude
Rises 14:19:14 0° 247° (WSW) 2,361 1.4 -4.4°
Reaches altitude 10° 14:21:20 10° 245° (WSW) 1,500 0.2 -4.7°
Drops below altitude 10° 14:28:02 10° 79° (E) 1,505 -1.6 -5.8°
Enters shadow 14:28:39 - 78° (ENE) 1,755 -1.2 -5.9°
Exits shadow 15:03:53 -72° 80° (E) 12,588 3.6 -11.3°
Maximum altitude 16:01:30 81° 2° (N) 431 -3.8 -19.9°
